Time,TemperatureF,DewpointF,PressureIn,WindDirection,WindDirectionDegrees,WindSpeedMPH,WindSpeedGustMPH,Humidity,HourlyPrecipIn,Conditions,Clouds,dailyrainin,SoftwareType,DateUTC
2013-04-04 00:02:00,27.1,16.0,30.22,ENE,61,0.0,0.0,63,0.00,,,0.00,weatherlink.com 1.10,2013-04-04 04:02:00,
2013-04-04 00:17:00,26.5,15.0,30.22,North,9,0.0,2.0,63,0.00,,,0.00,weatherlink.com 1.10,2013-04-04 04:17:00,
2013-04-04 00:32:00,26.2,17.0,30.23,WNW,297,0.0,1.0,68,0.00,,,0.00,weatherlink.com 1.10,2013-04-04 04:32:00,
2013-04-04 00:47:00,26.2,16.0,30.23,NNE,28,0.0,1.0,66,0.00,,,0.00,weatherlink.com 1.10,2013-04-04 04:47:00,
2013-04-04 01:02:00,25.3,16.0,30.23,NE,36,0.0,1.0,68,0.00,,,0.00,weatherlink.com 1.10,2013-04-04 05:02:00,
2013-04-04 01:17:00,24.9,16.0,30.23,NE,37,0.0,2.0,70,0.00,,,0.00,weatherlink.com 1.10,2013-04-04 05:17:00,
2013-04-04 01:32:00,24.7,17.0,30.23,NNE,16,0.0,1.0,72,0.00,,,0.00,weatherlink.com 1.10,2013-04-04 05:32:00,
2013-04-04 01:47:00,24.0,16.0,30.23,NNE,16,0.0,1.0,72,0.00,,,0.00,weatherlink.com 1.10,2013-04-04 05:47:00,
2013-04-04 02:05:00,23.8,16.0,30.23,NNE,16,0.0,1.0,72,0.00,,,0.00,weatherlink.com 1.10,2013-04-04 06:05:00,
2013-04-04 02:17:00,23.5,15.0,30.23,ENE,57,0.0,1.0,71,0.00,,,0.00,weatherlink.com 1.10,2013-04-04 06:17:00,
2013-04-04 02:32:00,23.0,17.0,30.22,ENE,57,0.0,1.0,78,0.00,,,0.00,weatherlink.com 1.10,2013-04-04 06:32:00,
2013-04-04 02:47:00,22.8,17.0,30.22,ENE,57,0.0,1.0,77,0.00,,,0.00,weatherlink.com 1.10,2013-04-04 06:47:00,
2013-04-04 03:02:00,23.5,17.0,30.23,NNW,333,0.0,2.0,76,0.00,,,0.00,weatherlink.com 1.10,2013-04-04 07:02:00,
2013-04-04 03:17:00,22.8,17.0,30.23,NE,34,0.0,1.0,77,0.00,,,0.00,weatherlink.com 1.10,2013-04-04 07:17:00,
2013-04-04 03:32:00,22.3,16.0,30.24,NE,34,0.0,1.0,76,0.00,,,0.00,weatherlink.com 1.10,2013-04-04 07:32:00,
2013-04-04 03:47:00,22.1,17.0,30.23,NE,53,0.0,1.0,79,0.00,,,0.00,weatherlink.com 1.10,2013-04-04 07:47:00,
2013-04-04 04:02:00,21.9,17.0,30.23,North,5,0.0,1.0,81,0.00,,,0.00,weatherlink.com 1.10,2013-04-04 08:02:00,
2013-04-04 04:17:00,21.6,16.0,30.23,NNE,30,0.0,2.0,79,0.00,,,0.00,weatherlink.com 1.10,2013-04-04 08:17:00,
2013-04-04 04:32:00,21.0,15.0,30.24,NNE,30,0.0,0.0,79,0.00,,,0.00,weatherlink.com 1.10,2013-04-04 08:32:00,
2013-04-04 04:47:00,20.9,16.0,30.24,NNE,30,0.0,1.0,81,0.00,,,0.00,weatherlink.com 1.10,2013-04-04 08:47:00,
2013-04-04 05:02:00,21.1,16.0,30.25,NNE,30,0.0,1.0,82,0.00,,,0.00,weatherlink.com 1.10,2013-04-04 09:02:00,
2013-04-04 05:17:00,20.8,17.0,30.25,NNE,18,1.0,1.0,84,0.00,,,0.00,weatherlink.com 1.10,2013-04-04 09:17:00,
2013-04-04 05:32:00,21.0,17.0,30.25,NNE,22,0.0,1.0,83,0.00,,,0.00,weatherlink.com 1.10,2013-04-04 09:32:00,
2013-04-04 05:47:00,20.5,16.0,30.26,NW,321,0.0,0.0,83,0.00,,,0.00,weatherlink.com 1.10,2013-04-04 09:47:00,
2013-04-04 06:02:00,20.5,16.0,30.27,NNE,12,0.0,1.0,83,0.00,,,0.00,weatherlink.com 1.10,2013-04-04 10:02:00,
2013-04-04 06:17:00,20.3,16.0,30.27,NNE,12,0.0,1.0,84,0.00,,,0.00,weatherlink.com 1.10,2013-04-04 10:17:00,
2013-04-04 06:33:00,20.0,17.0,30.27,NNE,12,0.0,1.0,86,0.00,,,0.00,weatherlink.com 1.10,2013-04-04 10:33:00,
2013-04-04 06:48:00,20.5,16.0,30.28,NE,51,0.0,1.0,82,0.00,,,0.00,weatherlink.com 1.10,2013-04-04 10:48:00,
2013-04-04 07:03:00,22.8,17.0,30.28,SE,138,0.0,2.0,78,0.00,,,0.00,weatherlink.com 1.10,2013-04-04 11:03:00,
2013-04-04 07:18:00,26.3,18.0,30.29,WNW,295,0.0,2.0,70,0.00,,,0.00,weatherlink.com 1.10,2013-04-04 11:18:00,
2013-04-04 07:33:00,29.4,17.0,30.29,SW,226,0.0,6.0,61,0.00,,,0.00,weatherlink.com 1.10,2013-04-04 11:33:00,
2013-04-04 07:48:00,31.5,16.0,30.29,SW,233,5.0,8.0,53,0.00,,,0.00,weatherlink.com 1.10,2013-04-04 11:48:00,
2013-04-04 08:03:00,32.5,16.0,30.29,WNW,283,5.0,8.0,51,0.00,,,0.00,weatherlink.com 1.10,2013-04-04 12:03:00,
2013-04-04 08:18:00,33.4,17.0,30.29,WSW,238,2.0,8.0,51,0.00,,,0.00,weatherlink.com 1.10,2013-04-04 12:18:00,
2013-04-04 08:33:00,35.0,15.0,30.29,SW,214,4.0,6.0,44,0.00,,,0.00,weatherlink.com 1.10,2013-04-04 12:33:00,
2013-04-04 08:48:00,35.6,14.0,30.28,WSW,253,2.0,8.0,42,0.00,,,0.00,weatherlink.com 1.10,2013-04-04 12:48:00,
2013-04-04 09:03:00,36.8,17.0,30.27,WSW,238,1.0,6.0,44,0.00,,,0.00,weatherlink.com 1.10,2013-04-04 13:03:00,
2013-04-04 09:18:00,36.5,16.0,30.27,SW,221,3.0,9.0,44,0.00,,,0.00,weatherlink.com 1.10,2013-04-04 13:18:00,
2013-04-04 09:33:00,36.8,16.0,30.27,West,271,4.0,11.0,42,0.00,,,0.00,weatherlink.com 1.10,2013-04-04 13:33:00,
2013-04-04 09:48:00,37.3,15.0,30.27,SW,220,5.0,11.0,41,0.00,,,0.00,weatherlink.com 1.10,2013-04-04 13:48:00,
2013-04-04 10:03:00,37.8,15.0,30.26,SW,235,4.0,13.0,39,0.00,,,0.00,weatherlink.com 1.10,2013-04-04 14:03:00,
2013-04-04 10:18:00,38.3,16.0,30.25,SW,233,3.0,12.0,40,0.00,,,0.00,weatherlink.com 1.10,2013-04-04 14:18:00,
2013-04-04 10:33:00,39.0,16.0,30.24,WSW,250,8.0,16.0,39,0.00,,,0.00,weatherlink.com 1.10,2013-04-04 14:33:00,
2013-04-04 10:48:00,39.8,14.0,30.23,SW,232,8.0,15.0,35,0.00,,,0.00,weatherlink.com 1.10,2013-04-04 14:48:00,
2013-04-04 11:18:00,41.5,16.0,30.21,SW,222,4.0,13.0,35,0.00,,,0.00,weatherlink.com 1.10,2013-04-04 15:18:00,
2013-04-04 11:33:00,42.2,14.0,30.20,WSW,257,7.0,13.0,32,0.00,,,0.00,weatherlink.com 1.10,2013-04-04 15:33:00,
2013-04-04 12:03:00,44.1,15.0,30.19,NW,319,4.0,14.0,31,0.00,,,0.00,weatherlink.com 1.10,2013-04-04 16:03:00,
2013-04-04 12:19:00,44.6,14.0,30.18,WSW,248,8.0,15.0,29,0.00,,,0.00,weatherlink.com 1.10,2013-04-04 16:19:00,
2013-04-04 12:34:00,44.7,14.0,30.17,SW,222,6.0,16.0,29,0.00,,,0.00,weatherlink.com 1.10,2013-04-04 16:34:00,
2013-04-04 12:49:00,45.7,16.0,30.16,SSW,195,10.0,11.0,30,0.00,,,0.00,weatherlink.com 1.10,2013-04-04 16:49:00,
2013-04-04 13:04:00,46.7,15.0,30.15,West,278,6.0,14.0,28,0.00,,,0.00,weatherlink.com 1.10,2013-04-04 17:04:00,
2013-04-04 13:19:00,47.5,16.0,30.14,SSW,206,3.0,15.0,28,0.00,,,0.00,weatherlink.com 1.10,2013-04-04 17:19:00,
2013-04-04 13:34:00,47.8,17.0,30.14,NNW,330,4.0,14.0,29,0.00,,,0.00,weatherlink.com 1.10,2013-04-04 17:34:00,
2013-04-04 13:50:00,49.1,16.0,30.13,WSW,257,10.0,12.0,27,0.00,,,0.00,weatherlink.com 1.10,2013-04-04 17:50:00,
2013-04-04 14:04:00,49.7,17.0,30.12,West,271,11.0,12.0,27,0.00,,,0.00,weatherlink.com 1.10,2013-04-04 18:04:00,
2013-04-04 14:19:00,50.9,19.0,30.11,WSW,255,6.0,11.0,28,0.00,,,0.00,weatherlink.com 1.10,2013-04-04 18:19:00,
2013-04-04 14:49:00,51.2,19.0,30.08,SSW,194,4.0,17.0,28,0.00,,,0.00,weatherlink.com 1.10,2013-04-04 18:49:00,
2013-04-04 15:04:00,51.7,21.0,30.07,West,279,6.0,14.0,30,0.00,,,0.00,weatherlink.com 1.10,2013-04-04 19:04:00,
2013-04-04 15:19:00,52.0,20.0,30.06,West,271,5.0,18.0,28,0.00,,,0.00,weatherlink.com 1.10,2013-04-04 19:19:00,
2013-04-04 15:34:00,52.4,19.0,30.05,WSW,242,8.0,14.0,27,0.00,,,0.00,weatherlink.com 1.10,2013-04-04 19:34:00,
2013-04-04 15:49:00,52.8,19.0,30.03,SSW,205,8.0,16.0,27,0.00,,,0.00,weatherlink.com 1.10,2013-04-04 19:49:00,
2013-04-04 16:04:00,53.4,20.0,30.02,SW,230,10.0,13.0,27,0.00,,,0.00,weatherlink.com 1.10,2013-04-04 20:04:00,
2013-04-04 16:19:00,53.8,19.0,30.01,WSW,254,5.0,16.0,26,0.00,,,0.00,weatherlink.com 1.10,2013-04-04 20:19:00,
2013-04-04 16:49:00,53.7,19.0,30.00,SW,230,6.0,15.0,26,0.00,,,0.00,weatherlink.com 1.10,2013-04-04 20:49:00,
2013-04-04 17:04:00,53.7,19.0,29.99,WSW,240,8.0,16.0,26,0.00,,,0.00,weatherlink.com 1.10,2013-04-04 21:04:00,
2013-04-04 17:19:00,52.7,19.0,29.99,West,266,5.0,15.0,27,0.00,,,0.00,weatherlink.com 1.10,2013-04-04 21:19:00,
2013-04-04 17:34:00,52.5,19.0,29.99,WSW,243,6.0,16.0,27,0.00,,,0.00,weatherlink.com 1.10,2013-04-04 21:34:00,
2013-04-04 17:49:00,52.4,20.0,29.99,WNW,289,6.0,14.0,28,0.00,,,0.00,weatherlink.com 1.10,2013-04-04 21:49:00,
2013-04-04 18:05:00,52.4,19.0,30.00,SW,226,10.0,13.0,27,0.00,,,0.00,weatherlink.com 1.10,2013-04-04 22:05:00,
2013-04-04 18:20:00,52.0,19.0,30.00,West,280,13.0,15.0,27,0.00,,,0.00,weatherlink.com 1.10,2013-04-04 22:20:00,
2013-04-04 18:35:00,50.7,18.0,29.99,West,260,4.0,14.0,28,0.00,,,0.00,weatherlink.com 1.10,2013-04-04 22:35:00,
2013-04-04 18:50:00,49.8,19.0,29.99,WSW,238,6.0,13.0,30,0.00,,,0.00,weatherlink.com 1.10,2013-04-04 22:50:00,
2013-04-04 19:05:00,49.1,19.0,29.99,SW,221,2.0,8.0,31,0.00,,,0.00,weatherlink.com 1.10,2013-04-04 23:05:00,
2013-04-04 19:20:00,48.6,20.0,29.99,WSW,248,3.0,5.0,32,0.00,,,0.00,weatherlink.com 1.10,2013-04-04 23:20:00,
2013-04-04 19:35:00,47.5,21.0,29.99,WSW,240,0.0,3.0,35,0.00,,,0.00,weatherlink.com 1.10,2013-04-04 23:35:00,
2013-04-04 19:50:00,45.1,21.0,29.99,SW,229,0.0,1.0,39,0.00,,,0.00,weatherlink.com 1.10,2013-04-04 23:50:00,
2013-04-04 20:05:00,42.7,23.0,29.99,SW,229,0.0,1.0,45,0.00,,,0.00,weatherlink.com 1.10,2013-04-05 00:05:00,
2013-04-04 20:20:00,40.6,21.0,29.99,SW,229,0.0,1.0,46,0.00,,,0.00,weatherlink.com 1.10,2013-04-05 00:20:00,
2013-04-04 20:35:00,39.0,24.0,29.99,SW,229,0.0,1.0,55,0.00,,,0.00,weatherlink.com 1.10,2013-04-05 00:35:00,
2013-04-04 20:50:00,37.7,21.0,29.99,SW,229,0.0,0.0,51,0.00,,,0.00,weatherlink.com 1.10,2013-04-05 00:50:00,
2013-04-04 21:05:00,36.7,22.0,29.99,SW,229,0.0,1.0,55,0.00,,,0.00,weatherlink.com 1.10,2013-04-05 01:05:00,
2013-04-04 21:20:00,35.5,24.0,29.98,SW,229,0.0,0.0,62,0.00,,,0.00,weatherlink.com 1.10,2013-04-05 01:20:00,
2013-04-04 21:35:00,34.8,24.0,29.98,SW,229,0.0,0.0,64,0.00,,,0.00,weatherlink.com 1.10,2013-04-05 01:35:00,
2013-04-04 21:50:00,33.9,22.0,29.98,SW,229,0.0,1.0,63,0.00,,,0.00,weatherlink.com 1.10,2013-04-05 01:50:00,
2013-04-04 22:05:00,33.1,23.0,29.97,SW,229,0.0,1.0,66,0.00,,,0.00,weatherlink.com 1.10,2013-04-05 02:05:00,
2013-04-04 22:20:00,32.2,22.0,29.97,SW,229,0.0,1.0,67,0.00,,,0.00,weatherlink.com 1.10,2013-04-05 02:20:00,
2013-04-04 22:35:00,32.0,22.0,29.96,SW,229,0.0,1.0,68,0.00,,,0.00,weatherlink.com 1.10,2013-04-05 02:35:00,
2013-04-04 22:50:00,31.3,23.0,29.95,SW,229,0.0,0.0,72,0.00,,,0.00,weatherlink.com 1.10,2013-04-05 02:50:00,
2013-04-04 23:05:00,30.8,22.0,29.94,SW,229,0.0,1.0,71,0.00,,,0.00,weatherlink.com 1.10,2013-04-05 03:05:00,
2013-04-04 23:20:00,30.5,22.0,29.94,SW,229,0.0,0.0,72,0.00,,,0.00,weatherlink.com 1.10,2013-04-05 03:20:00,
2013-04-04 23:35:00,30.1,23.0,29.93,SW,229,0.0,1.0,75,0.00,,,0.00,weatherlink.com 1.10,2013-04-05 03:35:00,
2013-04-04 23:50:00,30.0,22.0,29.93,SW,229,0.0,1.0,73,0.00,,,0.00,weatherlink.com 1.10,2013-04-05 03:50:00,